Regional Weather Roundup
Issued by NWS

Home | Current Version | Previous Version | Text Only | Print | Product List | Glossary On
Versions: 1 2 3 4 5 6 7 8 9 10 11 12 13 14 15 16 17 18 19 20 21 22 23 24 25 26 27 28 29 30 31 32 33 34 35 36 37 38 39 40 41 42 43 44 45 46 47 48 49 50
652
ASUS43 KLSX 271807
RWRMO

WEATHER SUMMARY FOR MISSOURI
NATIONAL WEATHER SERVICE SPRINGFIELD MO
100 PM CDT MON MAR 27 2017

NOTE: "FAIR" INDICATES FEW OR NO CLOUDS BELOW 12,000 FEET WITH NO
       SIGNIFICANT WEATHER AND/OR OBSTRUCTIONS TO VISIBILITY.
       CURRENT SKY AND/OR WEATHER CONDITIONS ARE NOT AVAILABLE FOR
       CHILLICOTHE AND FARMINGTON.

MOZ001>031-035>038-043-044-053-054-271900-
...NORTHERN AND WESTERN MISSOURI...

CITY           SKY/WX    TMP DP  RH WIND       PRES   REMARKS
KANSAS CTY INT LGT RAIN  48  47  96 N13       29.94R FOG
6HR MIN TEMP:  45; 6HR MAX TEMP:  49; 6HR PCP:  0.11;

KANSAS C DTWN  CLOUDY    52  48  86 NW8       29.92R
6HR MIN TEMP:  48; 6HR MAX TEMP:  52; 6HR PCP:  0.04;

LEE`S SUMMIT   CLOUDY    49  48  97 N12       29.92R
6HR MIN TEMP:  46; 6HR MAX TEMP:  50; 6HR PCP:  0.12;

ST JOSEPH      CLOUDY    48  46  93 N10       29.97R
6HR MIN TEMP:  46; 6HR MAX TEMP:  48; 6HR PCP:  0.10;

CHILLICOTHE      N/A     51  47  86 N6        29.92F
6HR MIN TEMP:  47; 6HR MAX TEMP:  51; 6HR PCP:  0.08;

KIRKSVILLE     CLOUDY    51  50  97 E9        29.90F
6HR MIN TEMP:  45; 6HR MAX TEMP:  51; 6HR PCP:  0.14;


$$
MOZ066>068-077>081-088>096-101>105-271900-
...SOUTHWEST MISSOURI...

CITY           SKY/WX    TMP DP  RH WIND       PRES   REMARKS
SPRINGFIELD    CLOUDY    59  54  83 NW6       29.84F
6HR MIN TEMP:  55; 6HR MAX TEMP:  59; 6HR PCP:  0.06;

JOPLIN         CLOUDY    54  52  93 NW8       29.89S
6HR MIN TEMP:  53; 6HR MAX TEMP:  55; 6HR PCP:  0.02;

BRANSON        PTSUNNY   59  57  94 NW7       29.86R

$$
MOZ032>034-039>042-045>050-055>058-069>072-271900-
...CENTRAL MISSOURI...

CITY           SKY/WX    TMP DP  RH WIND       PRES   REMARKS
COLUMBIA       CLOUDY    52  52 100 NE8       29.85S FOG
6HR MIN TEMP:  50; 6HR MAX TEMP:  52; 6HR PCP:  0.22;

JEFFERSON CITY LGT RAIN  57  52  83 CALM      29.85S
6HR MIN TEMP:  53; 6HR MAX TEMP:  57; 6HR PCP:  0.22;

ROLLA          CLOUDY    57  55  93 CALM      29.82F
6HR MIN TEMP:  53; 6HR MAX TEMP:  57; 6HR PCP:  0.01;

SEDALIA        CLOUDY    52  50  93 N8        29.87F
6HR MIN TEMP:  50; 6HR MAX TEMP:  52; 6HR PCP:  0.06;

WHITEMAN AFB   CLOUDY    51  51 100 N10       29.86S
WARRENSBURG    CLOUDY    50  46  87 N9        29.89R
OSAGE BEACH    CLOUDY   N/A N/A N/A W8        29.83F

$$
MOZ051-052-059>065-271900-
...EAST CENTRAL MISSOURI...

CITY           SKY/WX    TMP DP  RH WIND       PRES   REMARKS
ST LOUIS INTL  LGT RAIN  56  53  90 CALM      29.84F FOG
6HR MIN TEMP:  52; 6HR MAX TEMP:  56; 6HR PCP:  0.32;

SPIRIT OF STL  CLOUDY    55  54  96 N5        29.83F FOG
6HR MIN TEMP:  51; 6HR MAX TEMP:  55; 6HR PCP:  0.41;

ST CHARLES     CLOUDY    55  54  96 N7        29.84F
6HR MIN TEMP:  50; 6HR MAX TEMP:  55; 6HR PCP:  0.29;


$$
MOZ072>076-082>087-097>100-106>115-271900-
...SOUTH CENTRAL AND SOUTHEAST MISSOURI...

CITY           SKY/WX    TMP DP  RH WIND       PRES   REMARKS
CAPE GIRARDEAU RAIN      59  55  87 S14       29.83F FOG
6HR MIN TEMP:  55; 6HR MAX TEMP:  64; 6HR PCP:  0.09;

FARMINGTON     CLOUDY    59  54  83 SW9       29.84F
6HR MIN TEMP:  53; 6HR MAX TEMP:  59; 6HR PCP:  0.06;

POPLAR BLUFF   LGT RAIN  58  57  97 NW6       29.84F
6HR MIN TEMP:  55; 6HR MAX TEMP:  60; 6HR PCP:  0.27;

WEST PLAINS    CLOUDY    59  55  87 SW8       29.85S
6HR MIN TEMP:  55; 6HR MAX TEMP:  60; 6HR PCP:  0.49;


$$



USA.gov is the U.S. government's official web portal to all federal, state and local government web resources and services.